Le nostre stazioni meteo in Italia

Pubblicità
Il mio iltempo24.it
S. Valentino Alla Muta, Italia (16008): Temperatura & dewpoint: 13.06.2019 01:00:00 - 19.06.2019 01:00:00 (CEST)S. Valentino Alla Muta, Italia (16008): velocità del vento: 13.06.2019 01:00:00 - 19.06.2019 01:00:00 (CEST)S. Valentino Alla Muta, Italia (16008): direzione del vento: 13.06.2019 01:00:00 - 19.06.2019 01:00:00 (CEST)S. Valentino Alla Muta, Italia (16008): visibility: 13.06.2019 01:00:00 - 19.06.2019 01:00:00 (CEST)
Data & Tempo tt [°C] td [°C] ff [km/h] ff [kn] dd vv [km]
19.06.2019 01:00:00 14,2 10,4 8 4 NNE 10
19.06.2019 00:00:00 15,0 10,0 5 3 N 10
18.06.2019 23:00:00 16,2 10,7 5 3 S 10
18.06.2019 22:00:00 17,0 9,2 8 4 S 10
18.06.2019 21:00:00 17,6 9,3 8 4 OSO 10
18.06.2019 20:00:00 21,8 11,8 11 6 S 10
18.06.2019 19:00:00 19,8 9,1 11 6 SSE 10
18.06.2019 18:00:00 20,2 5,1 11 6 S 10
18.06.2019 17:00:00 19,6 -4,0 11 6 S 10
18.06.2019 16:00:00 21,8 -6,9 13 7 S 30
18.06.2019 15:00:00 21,8 1,5 11 6 S 20
18.06.2019 14:00:00 21,2 4,3 11 6 S 20
18.06.2019 13:00:00 20,2 7,6 11 6 S 10
18.06.2019 12:00:00 19,8 9,7 9 5 SSO 10
18.06.2019 11:00:00 18,0 9,9 9 5 SSO 20
18.06.2019 10:00:00 15,2 11,4 5 3 SSE 10
18.06.2019 09:00:00 13,0 10,4 5 3 NNE 10
18.06.2019 08:00:00 11,4 10,1 5 3 N 15
18.06.2019 07:00:00 10,8 9,9 5 3 NNE 10
18.06.2019 06:00:00 11,4 10,0 2 1 ENE 10
18.06.2019 05:00:00 11,8 10,9 2 1 ENE 10
18.06.2019 04:00:00 12,8 12,7 5 3 S 10
18.06.2019 03:00:00 12,8 12,7 5 3 SSO 10
18.06.2019 02:00:00 13,2 13,1 5 3 S 10
18.06.2019 01:00:00 13,8 13,7 5 3 ESE 10
18.06.2019 00:00:00 13,8 13,0 8 4 NNE 10
17.06.2019 23:00:00 17,2 13,1 9 5 NNE 10
17.06.2019 22:00:00 17,2 9,4 8 4 N 10
17.06.2019 21:00:00 20,2 11,4 5 3 S 15
17.06.2019 20:00:00 20,2 8,5 9 5 S 30
17.06.2019 19:00:00 20,4 6,4 8 4 S 30
17.06.2019 18:00:00 21,4 4,9 13 7 S 30
17.06.2019 17:00:00 21,8 4,8 11 6 S 30
17.06.2019 16:00:00 22,0 5,0 11 6 SSO 30
17.06.2019 15:00:00 21,8 5,2 11 6 SSO 40
17.06.2019 14:00:00 21,6 5,1 13 7 S 30
17.06.2019 13:00:00 21,0 4,6 13 7 S 30
17.06.2019 12:00:00 19,8 6,5 11 6 S 30
17.06.2019 11:00:00 15,2 8,7 5 3 SSO 15
17.06.2019 10:00:00 13,8 8,4 11 6 NNE 10
17.06.2019 09:00:00 12,8 9,1 13 7 NNE 10
17.06.2019 08:00:00 10,0 9,1 9 5 NNE 10
17.06.2019 07:00:00 10,0 8,9 8 4 N 10
17.06.2019 06:00:00 10,4 9,2 5 3 N 10
17.06.2019 05:00:00 10,8 8,9 8 4 N 10
17.06.2019 04:00:00 10,8 8,5 11 6 NNE 10
17.06.2019 03:00:00 11,0 7,7 9 5 NNE 10
17.06.2019 02:00:00 12,2 7,9 9 5 NNE 10
17.06.2019 01:00:00 12,6 10,0 9 5 NNE 10
17.06.2019 00:00:00 13,4 7,8 11 6 NNE 10
16.06.2019 23:00:00 14,0 6,8 13 7 NNE 10
16.06.2019 22:00:00 14,8 6,9 13 7 N 10
16.06.2019 21:00:00 15,2 6,2 13 7 N 10
16.06.2019 20:00:00 16,4 4,8 16 9 N 10
16.06.2019 19:00:00 17,0 3,7 15 8 N 10
16.06.2019 18:00:00 19,8 5,8 15 8 N 10
16.06.2019 17:00:00 20,0 4,1 11 6 N 20
16.06.2019 16:00:00 20,0 3,7 16 9 NNE 20
16.06.2019 15:00:00 20,0 4,1 16 9 NNE 10
16.06.2019 14:00:00 19,2 4,2 15 8 N 10
16.06.2019 13:00:00 18,0 3,9 15 8 NNE 10
16.06.2019 12:00:00 17,0 4,4 16 9 NNE 10
16.06.2019 11:00:00 16,0 5,0 15 8 NNE 10
16.06.2019 10:00:00 14,6 6,4 15 8 NNE 10
16.06.2019 09:00:00 13,6 7,2 11 6 NNE 20
16.06.2019 08:00:00 12,2 7,5 9 5 ENE 20
16.06.2019 07:00:00 12,4 8,3 9 5 NE 10
16.06.2019 06:00:00 12,6 8,5 8 4 NNE 10
16.06.2019 05:00:00 13,0 10,0 9 5 NNE 10
16.06.2019 04:00:00 12,8 10,2 9 5 NNE 10
16.06.2019 03:00:00 12,0 8,8 5 3 N 10
16.06.2019 02:00:00 12,2 8,7 8 4 N 10
16.06.2019 01:00:00 12,8 9,4 8 4 NNE 10
16.06.2019 00:00:00 15,2 11,8 5 3 N 10
15.06.2019 23:00:00 15,4 12,4 8 4 NNE 10
15.06.2019 22:00:00 16,4 12,0 8 4 NNE 10
15.06.2019 21:00:00 18,2 10,3 8 4 S 15
15.06.2019 20:00:00 19,8 9,1 13 7 SSE 20
15.06.2019 19:00:00 20,0 8,7 11 6 S 20
15.06.2019 18:00:00 20,2 8,5 11 6 S 20
15.06.2019 17:00:00 20,6 7,6 13 7 S 20
15.06.2019 16:00:00 21,8 6,9 16 9 SSO 20
15.06.2019 15:00:00 20,2 10,6 16 9 S 20
15.06.2019 14:00:00 20,2 11,2 16 9 SSE 20
15.06.2019 13:00:00 19,0 10,6 18 10 SSE 10
15.06.2019 12:00:00 18,2 10,3 16 9 SSE 20
15.06.2019 11:00:00 16,8 10,0 13 7 SSE 20
15.06.2019 10:00:00 16,4 9,8 13 7 S 20
15.06.2019 09:00:00 15,2 10,4 11 6 S 20
15.06.2019 08:00:00 13,6 11,5 11 6 SSO 10
15.06.2019 07:00:00 - - - - - -
15.06.2019 06:00:00 13,2 10,5 5 3 NNE 10
15.06.2019 05:00:00 13,0 10,2 5 3 NNE 10
15.06.2019 04:00:00 14,2 10,0 11 6 S 10
15.06.2019 03:00:00 14,0 10,0 11 6 S 10
15.06.2019 02:00:00 14,8 10,6 9 5 S 10
15.06.2019 01:00:00 15,2 9,4 13 7 S 10
15.06.2019 00:00:00 16,2 5,8 9 5 S 10
14.06.2019 23:00:00 17,8 3,3 8 4 S 10
14.06.2019 22:00:00 17,8 3,3 15 8 S 10
14.06.2019 21:00:00 17,8 5,7 5 3 SSO 10
14.06.2019 20:00:00 20,2 8,9 11 6 S 10
14.06.2019 19:00:00 20,8 4,4 11 6 S 10
14.06.2019 18:00:00 21,0 2,8 15 8 SSE 10
14.06.2019 17:00:00 20,8 1,6 15 8 S 10
14.06.2019 16:00:00 20,4 4,0 16 9 S 10
14.06.2019 15:00:00 20,0 1,9 18 10 S 10
14.06.2019 14:00:00 18,8 -2,2 18 10 SSE 10
14.06.2019 13:00:00 19,0 -3,2 16 9 S 10
14.06.2019 12:00:00 18,0 -2,3 21 11 OSO 20
14.06.2019 11:00:00 17,0 -1,6 21 11 SSE 10
14.06.2019 10:00:00 15,2 -1,4 16 9 SSE 40
14.06.2019 09:00:00 12,8 0,5 13 7 SSE 30
14.06.2019 08:00:00 7,8 3,7 5 3 S 10
14.06.2019 07:00:00 7,8 3,3 4 2 N 10
14.06.2019 06:00:00 8,0 3,1 2 1 N 10
14.06.2019 05:00:00 8,2 3,1 4 2 N 10
14.06.2019 04:00:00 9,2 3,6 2 1 - 10
14.06.2019 03:00:00 9,6 3,6 4 2 N 10
14.06.2019 02:00:00 10,2 5,0 4 2 NNE 10
14.06.2019 01:00:00 10,2 5,0 4 2 N 15
14.06.2019 00:00:00 10,8 3,4 2 1 N 15
13.06.2019 23:00:00 12,8 0,2 4 2 N 20
13.06.2019 22:00:00 13,4 -2,1 2 1 NNE 40
13.06.2019 21:00:00 15,2 -7,0 4 2 NNE 50
13.06.2019 20:00:00 17,2 -12,5 13 7 S 70
13.06.2019 19:00:00 19,6 -12,8 15 8 SSO 75
13.06.2019 18:00:00 20,2 -12,4 18 10 SSO 80
13.06.2019 17:00:00 20,2 -15,1 16 9 SSO 75
13.06.2019 16:00:00 20,0 -12,5 18 10 S 70
13.06.2019 15:00:00 19,6 -6,9 18 10 S 50
13.06.2019 14:00:00 19,2 -5,7 16 9 SSO 50
13.06.2019 13:00:00 19,2 -5,7 18 10 SSO 50
13.06.2019 12:00:00 17,8 2,5 22 12 SSO 40
13.06.2019 11:00:00 15,8 9,0 18 10 S 30
13.06.2019 10:00:00 14,2 9,2 18 10 SSE 20
13.06.2019 09:00:00 13,0 10,5 11 6 SSE 20
13.06.2019 08:00:00 11,2 8,4 0 0 N 20
13.06.2019 07:00:00 10,6 8,5 5 3 NNE 20
13.06.2019 06:00:00 10,8 9,2 0 0 N 20
13.06.2019 05:00:00 10,8 9,2 0 0 N 12
13.06.2019 04:00:00 10,8 9,2 0 0 N 10
13.06.2019 03:00:00 10,8 8,2 0 0 N 10
13.06.2019 02:00:00 10,8 8,4 0 0 N 10
13.06.2019 01:00:00 11,0 7,7 0 0 N 10

tt = Temperatura
td = dewpoint
ff = velocità del vento
dd = direzione del vento
vv = visibility

Stazioni seguenti

WeatherPro
AMSI
MeteoEarth